Location: Pl�tzky
(52.0521°N, 11.8020°E)
Time: 23:05:41
(UTC+00:00)

Cosmos 1328 Rocket - Pass Details

Date: 22 November 2019
Orbit: 600 x 628 km, 82.5° (Epoch: 05 December)

Event Time Altitude Azimuth Distance (km) Brightness Sun altitude
Rises 16:40:06 0° 179° (S) 2,890 7.2 -13.0°
Reaches altitude 10° 16:42:21 10° 176° (S) 1,985 6.3 -13.3°
Maximum altitude 16:46:40 61° 96° (E) 706 3.5 -14.0°
Drops below altitude 10° 16:51:00 10° 17° (NNE) 1,984 5.9 -14.6°
Enters shadow 16:52:27 - 15° (NNE) 2,570 6.5 -14.8°
